Location: Aragnouet
(42.7874°N, 0.2165°E)
Time: 21:48:11
(UTC+00:00)

SJ-6B - Pass Details

Date: 09 April 2020
Orbit: 509 x 582 km, 97.6° (Epoch: 24 May)

Event Time Altitude Azimuth Distance (km) Brightness Sun altitude
Exits shadow 20:14:06 - 188° (S) 2,134 5.6 -17.8°
Reaches altitude 10° 20:14:43 10° 191° (S) 1,891 5.4 -17.9°
Maximum altitude 20:18:36 41° 262° (W) 854 4.1 -18.5°
Drops below altitude 10° 20:22:33 10° 333° (NNW) 1,909 6.4 -19.1°
Sets 20:24:48 0° 341° (NNW) 2,811 7.3 -19.5°
